When you browse on this site, cookies collect data to enhance your experience and personalize the content and advertising you see.
Visit our Privacy Policy to learn more. By continuing to use the site, you agree to this use of cookies and data.
  • In Hungary
  • List of Countries
  • For 7 days
  • Water Temperature
  • Weather Map
  • News
  • Weather Widgets
  • user-avatar
    Login

    Hourly Weather Kyzylzhar (Ordabasinskiy rayon)

    Today, 11 December, Wednesday

    Time Temperature Precipitation Wind Pressure Humidity
    00:00 +6°C° 0 mm 1 mps 743 mmHg 81%
    01:00 +6°C° 0 mm 1 mps 743 mmHg 83%
    02:00 +6°C° 0 mm 1 mps 743 mmHg 85%
    03:00 +6°C° 0 mm 1 mps 743 mmHg 85%
    04:00 +6°C° 0 mm 1 mps 743 mmHg 85%
    05:00 +6°C° 0 mm 1 mps 743 mmHg 82%
    06:00 +6°C° 0 mm 1 mps 743 mmHg 81%
    07:00 +6°C° 0 mm 1 mps 743 mmHg 79%
    08:00 +6°C° 0 mm 1 mps 743 mmHg 77%
    09:00 +8°C° 0 mm 1 mps 743 mmHg 71%
    10:00 +9°C° 0 mm 1 mps 743 mmHg 64%
    11:00 +11°C° 0 mm 1 mps 743 mmHg 58%
    12:00 +11°C° 0 mm 1 mps 743 mmHg 57%
    13:00 +12°C° 0 mm 1 mps 742 mmHg 55%
    14:00 +13°C° 0 mm 1 mps 742 mmHg 53%
    15:00 +12°C° 0 mm 1 mps 742 mmHg 57%
    16:00 +11°C° 0 mm 1 mps 742 mmHg 61%
    17:00 +9°C° 0 mm 2 mps 741 mmHg 64%
    18:00 +8°C° 0 mm 2 mps 741 mmHg 66%
    19:00 +8°C° 0 mm 2 mps 741 mmHg 68%
    20:00 +7°C° 0 mm 2 mps 741 mmHg 69%
    21:00 +7°C° 0 mm 2 mps 741 mmHg 71%
    22:00 +7°C° 0 mm 1 mps 741 mmHg 72%
    23:00 +7°C° 0 mm 1 mps 741 mmHg 74%

    Tomorrow, 12 December, Thursday

    Time Temperature Precipitation Wind Pressure Humidity
    00:00 +7°C° 0 mm 1 mps 740 mmHg 74%
    01:00 +6°C° 0 mm 1 mps 740 mmHg 75%
    02:00 +6°C° 0 mm 1 mps 740 mmHg 75%
    03:00 +6°C° 0 mm 1 mps 740 mmHg 77%
    04:00 +6°C° 0 mm 1 mps 740 mmHg 80%
    05:00 +6°C° 0 mm 1 mps 740 mmHg 82%
    06:00 +6°C° 0.1 mm 1 mps 740 mmHg 80%
    07:00 +6°C° 0.1 mm 2 mps 741 mmHg 79%
    08:00 +6°C° 0.1 mm 2 mps 741 mmHg 78%
    09:00 +7°C° 0.1 mm 2 mps 741 mmHg 77%
    10:00 +7°C° 0.1 mm 2 mps 741 mmHg 76%
    11:00 +8°C° 0.1 mm 2 mps 741 mmHg 75%
    12:00 +9°C° 0 mm 2 mps 741 mmHg 71%
    13:00 +10°C° 0 mm 3 mps 740 mmHg 67%
    14:00 +10°C° 0 mm 3 mps 740 mmHg 63%
    15:00 +10°C° 0 mm 3 mps 740 mmHg 65%
    16:00 +9°C° 0 mm 2 mps 740 mmHg 68%
    17:00 +8°C° 0 mm 2 mps 740 mmHg 70%
    18:00 +8°C° 0 mm 2 mps 740 mmHg 72%
    19:00 +8°C° 0 mm 2 mps 740 mmHg 74%
    20:00 +7°C° 0 mm 2 mps 740 mmHg 75%
    21:00 +7°C° 0.2 mm 2 mps 740 mmHg 78%
    22:00 +7°C° 0.2 mm 2 mps 740 mmHg 81%
    23:00 +6°C° 0.2 mm 2 mps 740 mmHg 83%

    Day after tomorrow, 13 December, Friday

    Time Temperature Precipitation Wind Pressure Humidity
    00:00 +7°C° 0.1 mm 3 mps 740 mmHg 80%
    01:00 +6°C° 0.1 mm 4 mps 740 mmHg 76%
    02:00 +6°C° 0.1 mm 5 mps 740 mmHg 73%
    03:00 +6°C° 0 mm 5 mps 740 mmHg 71%
    04:00 +5°C° 0 mm 5 mps 740 mmHg 69%
    05:00 +5°C° 0 mm 5 mps 740 mmHg 68%
    06:00 +5°C° 0 mm 5 mps 740 mmHg 69%
    07:00 +3°C° 0 mm 5 mps 740 mmHg 70%
    08:00 +3°C° 0 mm 5 mps 740 mmHg 71%
    09:00 +4°C° 0 mm 7 mps 739 mmHg 66%
    10:00 +5°C° 0 mm 9 mps 739 mmHg 62%
    11:00 +4°C° 0 mm 11 mps 739 mmHg 58%
    12:00 +4°C° 0.1 mm 11 mps 739 mmHg 56%
    13:00 +4°C° 0.1 mm 11 mps 739 mmHg 54%
    14:00 +3°C° 0.1 mm 11 mps 738 mmHg 52%
    15:00 +2°C° 0.7 mm 10 mps 739 mmHg 66%
    16:00 0°C° 0.7 mm 9 mps 739 mmHg 80%
    17:00 -1°C° 0.7 mm 8 mps 739 mmHg 93%
    18:00 -2°C° 0.9 mm 7 mps 740 mmHg 91%
    19:00 -2°C° 0.9 mm 6 mps 740 mmHg 88%
    20:00 -2°C° 0.9 mm 5 mps 741 mmHg 85%
    21:00 -2°C° 0.1 mm 4 mps 741 mmHg 82%
    22:00 -2°C° 0.1 mm 3 mps 741 mmHg 78%
    23:00 -2°C° 0.1 mm 2 mps 742 mmHg 74%

    14 December, Saturday

    Time Temperature Precipitation Wind Pressure Humidity
    00:00 -3°C° 0 mm 2 mps 742 mmHg 74%
    01:00 -3°C° 0 mm 2 mps 742 mmHg 73%
    02:00 -4°C° 0 mm 2 mps 742 mmHg 73%
    03:00 -4°C° 0 mm 2 mps 743 mmHg 75%
    04:00 -2°C° 0 mm 1 mps 743 mmHg 77%
    05:00 -3°C° 0 mm 1 mps 744 mmHg 80%
    06:00 -3°C° 0 mm 1 mps 745 mmHg 82%
    07:00 -3°C° 0 mm 1 mps 746 mmHg 84%
    08:00 -3°C° 0 mm 1 mps 747 mmHg 86%
    09:00 -2°C° 0 mm 1 mps 747 mmHg 82%
    10:00 -1°C° 0 mm 1 mps 748 mmHg 77%
    11:00 0°C° 0 mm 1 mps 749 mmHg 73%
    12:00 +1°C° 0 mm 1 mps 749 mmHg 70%
    13:00 +1°C° 0 mm 1 mps 749 mmHg 66%
    14:00 +1°C° 0 mm 2 mps 749 mmHg 63%
    15:00 +1°C° 0 mm 1 mps 749 mmHg 66%
    16:00 0°C° 0 mm 1 mps 750 mmHg 70%
    17:00 0°C° 0 mm 1 mps 750 mmHg 73%
    18:00 -3°C° 0 mm 2 mps 750 mmHg 75%
    19:00 -3°C° 0 mm 2 mps 750 mmHg 78%
    20:00 -4°C° 0 mm 2 mps 751 mmHg 80%
    21:00 -4°C° 0 mm 2 mps 751 mmHg 80%
    22:00 -4°C° 0 mm 2 mps 751 mmHg 81%
    23:00 -4°C° 0 mm 2 mps 751 mmHg 81%

    15 December, Sunday

    Time Temperature Precipitation Wind Pressure Humidity
    00:00 -4°C° 0 mm 2 mps 751 mmHg 80%
    01:00 -4°C° 0 mm 2 mps 751 mmHg 79%
    02:00 -4°C° 0 mm 2 mps 751 mmHg 78%
    03:00 -4°C° 0 mm 2 mps 751 mmHg 77%
    04:00 -4°C° 0 mm 2 mps 751 mmHg 75%
    05:00 -4°C° 0 mm 2 mps 751 mmHg 74%
    06:00 -4°C° 0 mm 2 mps 751 mmHg 74%
    07:00 -5°C° 0 mm 3 mps 751 mmHg 74%
    08:00 -6°C° 0 mm 3 mps 751 mmHg 74%
    09:00 -4°C° 0 mm 3 mps 751 mmHg 69%
    10:00 -2°C° 0 mm 3 mps 751 mmHg 64%
    11:00 0°C° 0 mm 3 mps 751 mmHg 59%
    12:00 0°C° 0 mm 3 mps 751 mmHg 58%
    13:00 +1°C° 0 mm 3 mps 751 mmHg 57%
    14:00 0°C° 0 mm 4 mps 750 mmHg 56%
    15:00 -1°C° 0 mm 4 mps 750 mmHg 61%
    16:00 -2°C° 0 mm 4 mps 750 mmHg 65%
    17:00 -4°C° 0 mm 5 mps 750 mmHg 70%
    18:00 -4°C° 0 mm 5 mps 750 mmHg 70%
    19:00 -5°C° 0 mm 5 mps 750 mmHg 70%
    20:00 -5°C° 0 mm 5 mps 751 mmHg 70%
    21:00 -4°C° 0 mm 4 mps 750 mmHg 70%
    22:00 -4°C° 0 mm 4 mps 750 mmHg 71%
    23:00 -5°C° 0 mm 4 mps 750 mmHg 71%

    16 December, Monday

    Time Temperature Precipitation Wind Pressure Humidity
    00:00 -5°C° 0 mm 4 mps 750 mmHg 71%
    01:00 -5°C° 0 mm 3 mps 750 mmHg 72%
    02:00 -5°C° 0 mm 3 mps 750 mmHg 72%
    03:00 -5°C° 0 mm 3 mps 750 mmHg 72%
    04:00 -5°C° 0 mm 3 mps 750 mmHg 72%
    05:00 -5°C° 0 mm 3 mps 750 mmHg 71%
    06:00 -6°C° 0 mm 3 mps 750 mmHg 71%
    07:00 -6°C° 0 mm 3 mps 750 mmHg 70%
    08:00 -6°C° 0 mm 3 mps 750 mmHg 70%
    09:00 -4°C° 0 mm 3 mps 750 mmHg 63%
    10:00 -1°C° 0 mm 3 mps 750 mmHg 56%
    11:00 0°C° 0 mm 3 mps 751 mmHg 50%
    12:00 +1°C° 0 mm 3 mps 750 mmHg 49%
    13:00 +2°C° 0 mm 3 mps 750 mmHg 49%
    14:00 +1°C° 0 mm 4 mps 750 mmHg 49%
    15:00 +1°C° 0 mm 3 mps 750 mmHg 54%
    16:00 0°C° 0 mm 3 mps 750 mmHg 59%
    17:00 -1°C° 0 mm 3 mps 750 mmHg 64%
    18:00 -2°C° 0 mm 3 mps 750 mmHg 63%
    19:00 -2°C° 0 mm 3 mps 750 mmHg 62%
    20:00 -4°C° 0 mm 3 mps 750 mmHg 61%
    21:00 -4°C° 0 mm 3 mps 750 mmHg 59%
    22:00 -4°C° 0 mm 3 mps 750 mmHg 57%
    23:00 -3°C° 0 mm 2 mps 750 mmHg 55%
    Show more